| time (UTC) | temp C | wind direction | speed KPH | gust KPH | rain 1hr cm | rain 24hr cm | rain mn cm | humidity % | barometer mb |
| 20260505100427 | 21 | 10 | 4.8 | 0.0 | 0.00 | 0.00 | 0.00 | 94 | 1012.0 |
| 20260505093425 | 21 | 0 | 3.2 | 0.0 | 0.00 | 0.00 | 0.00 | 94 | 1013.0 |
| 20260505090424 | 20 | 0 | 3.2 | 0.0 | 0.00 | 0.00 | 0.00 | 94 | 1012.0 |
| 20260505083423 | 20 | 0 | 3.2 | 0.0 | 0.00 | 0.00 | 0.00 | 94 | 1012.0 |
| 20260505080421 | 22 | 110 | 6.4 | 0.0 | 0.00 | 0.00 | 0.00 | 94 | 1012.0 |
| 20260505073420 | 22 | 110 | 6.4 | 0.0 | 0.00 | 0.00 | 0.00 | 94 | 1012.0 |
| 20260505070419 | 21 | 110 | 6.4 | 0.0 | 0.00 | 0.00 | 0.00 | 94 | 1012.0 |
| 20260505063418 | 21 | 110 | 6.4 | 0.0 | 0.00 | 0.00 | 0.00 | 94 | 1012.0 |
| 20260505060417 | 20 | 110 | 6.4 | 0.0 | 0.00 | 0.00 | 0.00 | 94 | 1013.0 |
| 20260505053416 | 20 | 130 | 4.8 | 0.0 | 0.00 | 0.00 | 0.00 | 94 | 1013.0 |
| 20260505050415 | 23 | 140 | 4.8 | 0.0 | 0.00 | 0.00 | 0.00 | 94 | 1013.0 |
| 20260505040413 | 22 | 200 | 4.8 | 0.0 | 0.00 | 0.00 | 0.00 | 94 | 1014.0 |
| 20260505033412 | 21 | 200 | 4.8 | 0.0 | 0.00 | 0.00 | 0.00 | 94 | 1014.0 |
| 20260505030411 | 21 | 0 | 3.2 | 0.0 | 0.00 | 0.00 | 0.00 | 94 | 1014.0 |
| 20260505023410 | 20 | 0 | 3.2 | 0.0 | 0.00 | 0.00 | 0.00 | 94 | 1014.0 |
| 20260505020409 | 24 | 80 | 12.9 | 0.0 | 0.00 | 0.00 | 0.00 | 83 | 1013.0 |
| 20260505013407 | 23 | 80 | 12.9 | 0.0 | 0.00 | 0.00 | 0.00 | 83 | 1013.0 |
| 20260505010406 | 23 | 80 | 12.9 | 0.0 | 0.05 | 0.00 | 0.00 | 83 | 1012.0 |
| 20260505003405 | 22 | 80 | 12.9 | 0.0 | 0.00 | 0.00 | 0.00 | 83 | 1012.0 |
| 20260505000405 | 26 | 330 | 14.5 | 0.0 | 0.00 | 0.00 | 0.00 | 61 | 1011.0 |
| 20260504233403 | 26 | 330 | 14.5 | 0.0 | 0.00 | 0.00 | 0.00 | 61 | 1011.0 |
| 20260504230402 | 26 | 330 | 14.5 | 0.0 | 0.00 | 0.00 | 0.00 | 61 | 1010.0 |
| 20260504223401 | 27 | 320 | 16.1 | 0.0 | 0.00 | 0.00 | 0.00 | 61 | 1010.0 |
| 20260504220400 | 26 | 320 | 16.1 | 0.0 | 0.00 | 0.00 | 0.00 | 61 | 1009.0 |
| 20260504213359 | 27 | 330 | 14.5 | 0.0 | 0.00 | 0.00 | 0.00 | 57 | 1009.0 |
| 20260504210358 | 28 | 320 | 14.5 | 0.0 | 0.00 | 0.00 | 0.00 | 65 | 1008.0 |
| 20260504203357 | 27 | 320 | 14.5 | 0.0 | 0.00 | 0.00 | 0.00 | 65 | 1008.0 |
| 20260504200356 | 27 | 60 | 4.8 | 0.0 | 0.00 | 0.00 | 0.00 | 65 | 1008.0 |
| 20260504193355 | 26 | 60 | 4.8 | 0.0 | 0.00 | 0.00 | 0.00 | 65 | 1008.0 |
| 20260504190354 | 30 | 10 | 8.0 | 0.0 | 0.00 | 0.00 | 0.00 | 10 | 1009.0 |
| 20260504183353 | 30 | 10 | 8.0 | 0.0 | 0.00 | 0.00 | 0.00 | 10 | 1009.0 |
| 20260504180352 | 29 | 10 | 8.0 | 0.0 | 0.00 | 0.00 | 0.00 | 10 | 1010.0 |
| 20260504173351 | 28 | 10 | 8.0 | 0.0 | 0.00 | 0.00 | 0.00 | 10 | 1010.0 |
| 20260504170350 | 28 | 10 | 8.0 | 0.0 | 0.00 | 0.00 | 0.00 | 10 | 1012.0 |
| 20260504160348 | 27 | 10 | 8.0 | 0.0 | 0.00 | 0.00 | 0.00 | 10 | 1013.0 |
| 20260504150345 | 26 | 320 | 4.8 | 0.0 | 0.00 | 0.00 | 0.00 | 10 | 1014.0 |
| 20260504140343 | 25 | 320 | 4.8 | 0.0 | 0.00 | 0.00 | 0.00 | 10 | 1014.0 |
| 20260504130341 | 23 | 30 | 3.2 | 0.0 | 0.00 | 0.00 | 0.00 | 10 | 1014.0 |
| 20260504110337 | 21 | 0 | 1.6 | 0.0 | 0.00 | 0.00 | 0.00 | 10 | 1013.0 |